Location: Mentone
(34.5413°N, 85.5351°W)
Time: 03:56:52
(UTC-06:00)

Amateur Radio Satellites - All Passes

Search period start: 21 December 2014 03:26
Search period end: 22 December 2014 03:26
Location: Mentone, 34.5413°N, 85.5351°W

Satellite Date Start Highest point End Downlink Frequencies (MHz)
Time Altitude Azimuth
JAS-2 21 Dec 03:35:42 03:38:29 14° 91° (E) 03:41:11 435.910
MOZHAYETS 4 21 Dec 03:37:22 03:41:52 52° 74° (ENE) 03:46:23
VERMONT LUNAR 21 Dec 03:46:11 03:49:28 36° 349° (N) 03:52:46 437.305
HORYU 2 21 Dec 03:51:50 03:55:37 27° 290° (WNW) 03:59:24 437.375
PHONESAT 2.4 21 Dec 04:01:53 04:05:19 40° 347° (NNW) 04:08:45 2401.200-2431.200
PRISM 21 Dec 04:13:51 04:16:37 17° 68° (ENE) 04:19:23 437.425
SO-50 21 Dec 04:26:58 04:30:13 17° 48° (NE) 04:33:27 436.795
AO-7 21 Dec 04:45:44 04:53:51 57° 293° (WNW) 05:01:55 29.400- 29.500
GONETS M04 21 Dec 04:46:26 04:55:02 59° 91° (E) 05:03:38
CUBESAT XI-V 21 Dec 05:02:19 05:06:19 29° 71° (ENE) 05:10:19 437.345
MOZHAYETS 4 21 Dec 05:17:24 05:19:20 12° 268° (W) 05:21:17
JAS-2 21 Dec 05:18:42 05:24:04 53° 288° (WNW) 05:29:05 435.910
STRAND 1 21 Dec 05:23:29 05:28:19 45° 72° (ENE) 05:33:10 437.568
VERMONT LUNAR 21 Dec 05:25:05 05:28:17 31° 6° (N) 05:31:29 437.305
Cubesat XI-IV 21 Dec 05:38:33 05:43:41 47° 100° (E) 05:48:47 437.490
PHONESAT 2.4 21 Dec 05:41:13 05:44:30 31° 4° (N) 05:47:47 2401.200-2431.200
PRISM 21 Dec 05:48:03 05:51:51 33° 262° (W) 05:55:41 437.425
SO-50 21 Dec 06:06:17 06:11:06 57° 244° (WSW) 06:15:53 436.795
CUTE-I 21 Dec 06:11:32 06:16:52 82° 284° (WNW) 06:22:10 437.470
CUBESAT XI-V 21 Dec 06:40:00 06:43:42 23° 265° (W) 06:47:24 437.345
GONETS M04 21 Dec 06:45:11 06:52:16 27° 288° (WNW) 06:59:24
VERMONT LUNAR 21 Dec 07:03:22 07:06:54 78° 22° (NNE) 07:10:26 437.305
STRAND 1 21 Dec 07:04:19 07:07:40 18° 266° (W) 07:11:01 437.568
Cubesat XI-IV 21 Dec 07:19:46 07:23:21 19° 294° (WNW) 07:26:57 437.490
PHONESAT 2.4 21 Dec 07:19:55 07:23:32 69° 21° (NNE) 07:27:09 2401.200-2431.200
BRITE-PL 21 Dec 07:38:09 07:41:50 21° 96° (E) 07:45:42 437.365/2234.400
HO-68 21 Dec 07:38:52 07:44:41 26° 96° (E) 07:50:26 435.675
MaSat-1 21 Dec 07:49:49 07:52:08 58° 112° (ESE) 07:54:22 437.345
GOMX 1 21 Dec 08:01:21 08:05:28 27° 97° (E) 08:09:47 467.674
AAUSAT CUBESAT 2 21 Dec 08:10:29 08:13:50 22° 95° (E) 08:17:09 437.432
DOVE 4 21 Dec 08:23:36 08:28:01 33° 98° (E) 08:32:37 437.250
CANX-2 21 Dec 08:25:38 08:29:57 65° 101° (E) 08:34:12 2200.000
CUBEBUG 2 21 Dec 08:26:00 08:27:15 11° 92° (E) 08:28:31 437.445
CUSAT 1 21 Dec 08:31:33 08:34:35 29° 88° (E) 08:38:26 437.405
ANTELSAT 21 Dec 08:36:35 08:39:13 16° 67° (ENE) 08:41:54 437.575/2403.000
VERMONT LUNAR 21 Dec 08:42:22 08:44:56 19° 216° (SW) 08:47:30 437.305
CINEMA 3 21 Dec 08:44:20 08:48:39 32° 97° (E) 08:53:04 145.822/145.860
COMPASS 1 21 Dec 08:45:35 08:49:50 72° 101° (ESE) 08:54:03 437.405
SEEDS 21 Dec 08:52:02 08:56:20 78° 283° (WNW) 09:00:35 437.485
CUTE 1.7 + AOD 2 21 Dec 08:56:26 09:00:40 58° 285° (WNW) 09:04:53 437.475
DELFI C3 21 Dec 08:58:24 09:02:07 32° 97° (E) 09:05:47 145.870
FUNcube-1 21 Dec 08:58:33 09:01:44 18° 94° (E) 09:04:55 145.935
PHONESAT 2.4 21 Dec 08:59:04 09:02:00 23° 215° (SW) 09:04:56 2401.200-2431.200
O/OREOS (USA 219) 21 Dec 09:00:14 09:02:27 13° 59° (ENE) 09:04:40 437.305
UWE-3 21 Dec 09:00:33 09:04:18 24° 96° (E) 09:08:04 435.000/436.395/437.385
POPSAT HIP 1 21 Dec 09:04:19 09:07:22 20° 69° (ENE) 09:10:24 437.405
RS-15 21 Dec 09:06:52 09:12:32 16° 99° (E) 09:18:09 29.354- 29.394
YUBILEINY 21 Dec 09:07:43 09:13:30 19° 68° (ENE) 09:19:14 435.215
TIGRISAT 21 Dec 09:10:06 09:14:04 37° 72° (ENE) 09:18:09 435.000
DX 1 21 Dec 09:13:49 09:17:59 44° 100° (E) 09:22:07 434.975-435.025
BRITE-PL 21 Dec 09:15:57 09:20:19 36° 287° (WNW) 09:24:59 437.365/2234.400
AISAT 21 Dec 09:20:01 09:22:48 16° 94° (E) 09:25:34 437.250
HO-68 21 Dec 09:25:43 09:32:33 50° 291° (WNW) 09:39:21 435.675
DANDE 21 Dec 09:26:18 09:29:33 62° 281° (W) 09:33:52 436.750
BUGSAT 1 21 Dec 09:27:02 09:30:33 28° 72° (ENE) 09:34:02 437.445
HUMSAT D 21 Dec 09:27:19 09:30:40 21° 95° (E) 09:34:00 437.325/437.525
DUCHIFAT 1 21 Dec 09:30:56 09:34:52 40° 73° (ENE) 09:38:48 145.980
Oscar 11 21 Dec 09:35:02 09:39:23 71° 284° (WNW) 09:43:42 145.826/435.025
UNISAT 6 21 Dec 09:39:13 09:43:33 86° 77° (ENE) 09:48:02 437.425
GOMX 1 21 Dec 09:39:19 09:43:29 29° 288° (WNW) 09:47:51 467.674
UKube-1 21 Dec 09:44:00 09:48:20 81° 284° (WNW) 09:52:39 .
QB50P2 21 Dec 09:44:46 09:48:55 63° 75° (ENE) 09:53:05 145.880/145.840
AAUSAT CUBESAT 2 21 Dec 09:45:58 09:49:24 24° 289° (WNW) 09:52:48 437.432
POLYITAN 1 21 Dec 09:53:49 09:58:01 82° 77° (ENE) 10:02:14 437.675
NANOSAT C BR1 21 Dec 09:55:23 09:59:35 84° 77° (ENE) 10:03:48 145.865
CUBEBUG 2 21 Dec 09:59:37 10:04:13 61° 285° (WNW) 10:08:54 437.445
DOVE 4 21 Dec 10:01:47 10:05:34 23° 290° (WNW) 10:09:30 437.250
ZACube-1 21 Dec 10:07:07 10:11:39 70° 284° (WNW) 10:16:14 437.345
QB50P1 21 Dec 10:09:59 10:14:08 63° 259° (W) 10:18:20 145.935-145.965
VELOX 1 21 Dec 10:11:31 10:15:55 65° 101° (ESE) 10:20:18 145.980
ANTELSAT 21 Dec 10:11:35 10:15:38 39° 262° (W) 10:19:49 437.575/2403.000
CUSAT 1 21 Dec 10:16:07 10:18:01 13° 296° (WNW) 10:20:09 437.405
JUGNU 21 Dec 10:16:28 10:18:50 12° 166° (SSE) 10:21:11 437.505
ESTCUBE 1 21 Dec 10:17:07 10:20:58 28° 97° (E) 10:24:48 437.505/2401.250
CINEMA 3 21 Dec 10:21:53 10:25:38 23° 290° (WNW) 10:29:28 145.822/145.860
FUNcube-1 21 Dec 10:33:59 10:38:06 35° 288° (WNW) 10:42:15 145.935
50 SAT 21 Dec 10:34:13 10:38:22 72° 283° (WNW) 10:42:30 437.505
DELFI C3 21 Dec 10:34:30 10:37:05 16° 292° (WNW) 10:39:39 145.870
UWE-3 21 Dec 10:36:49 10:40:44 28° 289° (WNW) 10:44:42 435.000/436.395/437.385
O/OREOS (USA 219) 21 Dec 10:37:45 10:42:08 51° 254° (WSW) 10:46:31 437.305
POPSAT HIP 1 21 Dec 10:39:27 10:43:03 27° 263° (W) 10:46:40 437.405
TIGRISAT 21 Dec 10:48:21 10:50:57 16° 267° (W) 10:53:35 435.000
DX 1 21 Dec 10:51:35 10:53:48 14° 294° (WNW) 10:56:02 434.975-435.025
AISAT 21 Dec 10:55:26 10:59:30 37° 288° (WNW) 11:03:35 437.250
CUBEBUG 1 21 Dec 10:58:19 11:02:40 83° 102° (ESE) 11:07:00 437.445
YUBILEINY 21 Dec 11:02:27 11:11:08 77° 266° (W) 11:19:48 435.215
HUMSAT D 21 Dec 11:02:44 11:06:23 27° 289° (WNW) 11:10:03 437.325/437.525
BUGSAT 1 21 Dec 11:03:13 11:06:01 18° 265° (W) 11:08:49 437.445
DUCHIFAT 1 21 Dec 11:08:54 11:10:52 13° 267° (W) 11:12:50 145.980
RS-15 21 Dec 11:12:09 11:23:08 84° 116° (ESE) 11:34:06 29.354- 29.394
BEESAT 3 21 Dec 11:20:21 11:22:29 14° 108° (ESE) 11:24:38 437.485
SRMSAT 21 Dec 11:22:50 11:23:45 10° 164° (SSE) 11:24:40 437.500
ESTCUBE 1 21 Dec 11:54:12 11:57:40 22° 291° (WNW) 12:01:07 437.505/2401.250
BEESAT 21 Dec 11:56:50 11:57:35 10° 92° (E) 11:58:20 436.000
TISAT 1 21 Dec 11:57:12 12:01:26 88° 283° (WNW) 12:05:41 437.305
Oscar 19 21 Dec 11:57:38 12:02:23 40° 71° (ENE) 12:07:12 437.125/150
PCSat 21 Dec 11:58:44 12:02:51 23° 106° (ESE) 12:07:00 145.827
BEESAT 2 21 Dec 11:59:07 12:02:52 36° 113° (ESE) 12:06:40 435.950
ISS 21 Dec 12:00:18 12:03:26 42° 133° (SE) 12:06:35 145.825
JUGNU 21 Dec 12:03:07 12:07:08 19° 176° (S) 12:11:09 437.505
SPROUT 21 Dec 12:03:09 12:07:27 81° 283° (WNW) 12:11:45 437.525
ITAMSAT 1 21 Dec 12:16:14 12:20:09 22° 67° (ENE) 12:24:04 435.822/435.867
Gurwin Techsat 1B 21 Dec 12:17:44 12:20:16 14° 64° (ENE) 12:22:49 435.225
M-CUBED/EXP-1 PRIME 21 Dec 12:48:43 12:50:07 12° 95° (E) 12:51:29 437.505
BEESAT 3 21 Dec 12:56:23 13:00:15 40° 303° (WNW) 13:04:11 437.485
YUBILEINY 21 Dec 13:04:24 13:06:22 11° 283° (WNW) 13:08:20 435.215
SWISSCUBE 21 Dec 13:06:12 13:10:58 75° 102° (ESE) 13:15:42 437.505
ITUPSAT 1 21 Dec 13:07:02 13:11:47 68° 102° (ESE) 13:16:30 437.325
AIST 2 21 Dec 13:07:46 13:11:58 81° 299° (WNW) 13:16:16 435.215
SRMSAT 21 Dec 13:08:23 13:12:12 18° 173° (S) 13:16:01 437.500
HORYU 2 21 Dec 13:11:52 13:14:21 15° 66° (ENE) 13:16:51 437.375
RS-15 21 Dec 13:28:04 13:36:51 27° 320° (NW) 13:45:45 29.354- 29.394
BEESAT 21 Dec 13:31:04 13:35:48 64° 285° (WNW) 13:40:29 436.000
ISS 21 Dec 13:37:46 13:40:09 18° 328° (NNW) 13:42:32 145.825
Oscar 19 21 Dec 13:38:09 13:41:50 20° 266° (W) 13:45:32 437.125/150
BEESAT 2 21 Dec 13:38:21 13:41:13 18° 309° (NW) 13:44:07 435.950
PCSat 21 Dec 13:40:53 13:45:57 41° 301° (WNW) 13:51:04 145.827
AO-7 21 Dec 13:49:28 13:56:18 30° 60° (ENE) 14:03:09 29.400- 29.500
JUGNU 21 Dec 13:51:35 13:55:29 18° 186° (S) 13:59:23 437.505
Gurwin Techsat 1B 21 Dec 13:54:21 13:59:37 66° 258° (WSW) 14:04:54 435.225
ITAMSAT 1 21 Dec 13:54:35 13:59:21 38° 261° (W) 14:04:09 435.822/435.867
AUBIESAT-1 21 Dec 13:54:56 13:59:09 76° 106° (ESE) 14:02:58 437.475
STARS 21 Dec 14:14:34 14:18:52 47° 100° (E) 14:23:09 437.465
KKS-1 21 Dec 14:20:07 14:24:37 87° 103° (ESE) 14:29:06 437.445
M-CUBED/EXP-1 PRIME 21 Dec 14:21:24 14:25:28 44° 292° (WNW) 14:29:10 437.505
HORYU 2 21 Dec 14:46:22 14:50:36 43° 261° (W) 14:54:54 437.375
ITUPSAT 1 21 Dec 14:47:48 14:49:03 11° 296° (WNW) 14:50:17 437.325
SRMSAT 21 Dec 14:56:41 15:00:41 19° 184° (S) 15:04:41 437.500
GONETS M04 21 Dec 15:02:15 15:08:56 24° 70° (ENE) 15:15:31
JAS-2 21 Dec 15:24:33 15:31:48 47° 71° (ENE) 15:38:29 435.910
MOZHAYETS 4 21 Dec 15:37:31 15:40:25 16° 93° (E) 15:43:18
AO-7 21 Dec 15:40:27 15:48:33 57° 257° (WSW) 15:56:45 29.400- 29.500
AIST 1 21 Dec 15:40:52 15:45:10 58° 94° (E) 15:49:28
JUGNU 21 Dec 15:42:17 15:43:46 11° 196° (SSW) 15:45:16 437.505
RS-15 21 Dec 15:52:30 15:55:04 11° 356° (N) 15:57:39 29.354- 29.394
STARS 21 Dec 15:52:44 15:54:54 14° 294° (WNW) 15:57:04 437.465
CUTE-I 21 Dec 15:53:37 15:55:51 13° 63° (ENE) 15:58:06 437.470
SRMSAT 21 Dec 16:46:38 16:49:08 13° 194° (SSW) 16:51:39 437.500
Cubesat XI-IV 21 Dec 16:57:07 17:02:19 56° 73° (ENE) 17:07:31 437.490
GONETS M04 21 Dec 16:57:43 17:06:19 64° 268° (W) 17:14:50
JAS-2 21 Dec 17:10:10 17:16:47 31° 264° (W) 17:23:02 435.910
MOZHAYETS 4 21 Dec 17:13:28 17:17:46 39° 287° (WNW) 17:22:00
MaSat-1 21 Dec 17:23:05 17:25:09 23° 64° (ENE) 17:27:19 437.345
CUTE-I 21 Dec 17:29:58 17:35:16 71° 258° (WSW) 17:40:35 437.470
PRISM 21 Dec 17:34:25 17:38:22 43° 100° (E) 17:42:17 437.425
STRAND 1 21 Dec 17:38:25 17:42:07 20° 95° (E) 17:45:48 437.568
RS-15 21 Dec 18:06:19 18:14:11 21° 33° (NNE) 18:22:14 29.354- 29.394
HO-68 21 Dec 18:06:30 18:10:00 14° 57° (ENE) 18:13:29 435.675
DANDE 21 Dec 18:27:59 18:32:30 16° 68° (ENE) 18:37:13 436.750
ISS 21 Dec 18:32:10 18:34:01 14° 29° (NNE) 18:35:51 145.825
CUBESAT XI-V 21 Dec 18:39:18 18:43:53 70° 284° (WNW) 18:48:26 437.345
Cubesat XI-IV 21 Dec 18:39:45 18:42:41 15° 267° (W) 18:45:38 437.490
BRITE-PL 21 Dec 18:48:00 18:50:00 13° 67° (ENE) 18:52:00 437.365/2234.400
AAUSAT CUBESAT 2 21 Dec 19:01:03 19:01:56 11° 66° (ENE) 19:02:49 437.432
GOMX 1 21 Dec 19:08:10 19:10:42 16° 68° (ENE) 19:13:13 467.674
PRISM 21 Dec 19:11:39 19:13:28 13° 294° (WNW) 19:15:17 437.425
CUSAT 1 21 Dec 19:11:49 19:19:11 38° 75° (ENE) 19:26:55 437.405
CANX-2 21 Dec 19:15:42 19:19:24 29° 72° (ENE) 19:23:07 2200.000
STRAND 1 21 Dec 19:16:41 19:21:23 39° 289° (WNW) 19:26:05 437.568
DOVE 4 21 Dec 19:27:38 19:30:35 19° 69° (ENE) 19:33:33 437.250
COMPASS 1 21 Dec 19:34:06 19:37:49 31° 72° (ENE) 19:41:34 437.405
SEEDS 21 Dec 19:40:55 19:44:57 45° 74° (ENE) 19:49:02 437.485
CINEMA 3 21 Dec 19:44:29 19:47:13 17° 68° (ENE) 19:50:00 145.822/145.860
DELFI C3 21 Dec 19:45:11 19:47:19 14° 68° (ENE) 19:49:28 145.870
CUTE 1.7 + AOD 2 21 Dec 19:45:46 19:49:58 62° 76° (ENE) 19:54:13 437.475
HO-68 21 Dec 19:49:27 19:56:39 86° 74° (ENE) 20:03:52 435.675
UWE-3 21 Dec 19:56:49 19:58:26 12° 66° (ENE) 20:00:03 435.000/436.395/437.385
DX 1 21 Dec 20:06:40 20:10:13 25° 70° (ENE) 20:13:46 434.975-435.025
ISS 21 Dec 20:07:38 20:10:53 65° 225° (SW) 20:14:06 145.825
DANDE 21 Dec 20:08:42 20:16:46 81° 82° (E) 20:25:30 436.750
SO-50 21 Dec 20:17:29 20:21:57 74° 300° (WNW) 20:26:36 436.795
RS-15 21 Dec 20:17:38 20:28:59 71° 59° (ENE) 20:40:49 29.354- 29.394
AISAT 21 Dec 20:17:40 20:18:07 10° 64° (ENE) 20:18:33 437.250
BRITE-PL 21 Dec 20:24:17 20:28:12 38° 261° (W) 20:32:04 437.365/2234.400
Oscar 11 21 Dec 20:26:14 20:30:28 55° 75° (ENE) 20:34:43 145.826/435.025
AAUSAT CUBESAT 2 21 Dec 20:32:58 20:37:04 55° 260° (W) 20:41:13 437.432
UKube-1 21 Dec 20:35:37 20:39:49 53° 74° (ENE) 20:44:03 .
GOMX 1 21 Dec 20:44:51 20:48:34 32° 262° (W) 20:52:18 467.674
PCSat 21 Dec 20:52:14 20:53:00 10° 45° (NE) 20:53:45 145.827
CANX-2 21 Dec 20:52:18 20:55:19 19° 266° (W) 20:58:22 2200.000
CUSAT 1 21 Dec 20:54:42 21:02:15 45° 269° (W) 21:10:09 437.405
CUBEBUG 2 21 Dec 20:54:47 20:58:55 73° 76° (ENE) 21:03:11 437.445
ZACube-1 21 Dec 21:00:00 21:04:05 58° 75° (ENE) 21:08:16 437.345
DOVE 4 21 Dec 21:04:42 21:08:11 26° 264° (W) 21:11:42 437.250
VELOX 1 21 Dec 21:06:11 21:10:15 37° 72° (ENE) 21:14:20 145.980
TIGRISAT 21 Dec 21:07:46 21:09:09 11° 92° (E) 21:10:33 435.000
COMPASS 1 21 Dec 21:10:44 21:13:33 17° 266° (W) 21:16:24 437.405
ESTCUBE 1 21 Dec 21:14:23 21:17:28 18° 68° (ENE) 21:20:33 437.505/2401.250
DELFI C3 21 Dec 21:18:23 21:22:12 38° 262° (W) 21:26:05 145.870
50 SAT 21 Dec 21:19:10 21:22:57 42° 74° (ENE) 21:26:47 437.505
BEESAT 3 21 Dec 21:19:16 21:23:12 39° 57° (ENE) 21:27:03 437.485
SEEDS 21 Dec 21:19:24 21:20:59 12° 268° (W) 21:22:35 437.485
CINEMA 3 21 Dec 21:20:31 21:24:11 30° 263° (W) 21:27:55 145.822/145.860
FUNcube-1 21 Dec 21:26:19 21:30:27 65° 259° (W) 21:34:40 145.935
UWE-3 21 Dec 21:30:30 21:34:30 47° 261° (W) 21:38:36 435.000/436.395/437.385
AIST 2 21 Dec 21:33:38 21:37:08 24° 53° (NE) 21:40:34 435.215
UNISAT 6 21 Dec 21:35:25 21:39:17 25° 96° (E) 21:43:09 437.425
QB50P2 21 Dec 21:35:36 21:37:48 14° 93° (E) 21:40:00 145.880/145.840
HO-68 21 Dec 21:41:46 21:45:02 14° 269° (W) 21:48:19 435.675
DX 1 21 Dec 21:42:54 21:46:21 23° 264° (W) 21:49:48 434.975-435.025
POLYITAN 1 21 Dec 21:44:15 21:47:11 18° 95° (E) 21:50:07 437.675
NANOSAT C BR1 21 Dec 21:45:20 21:48:15 18° 95° (E) 21:51:10 145.865
AISAT 21 Dec 21:49:47 21:54:09 63° 259° (WSW) 21:58:33 437.250
HUMSAT D 21 Dec 21:51:00 21:55:02 57° 260° (W) 21:59:09 437.325/437.525
CUBEBUG 1 21 Dec 21:51:17 21:55:25 43° 73° (ENE) 21:59:33 437.445
DANDE 21 Dec 21:54:04 21:59:33 20° 275° (W) 22:05:17 436.750
QB50P1 21 Dec 21:59:23 22:03:00 26° 97° (E) 22:06:36 145.935-145.965
BEESAT 2 21 Dec 22:00:09 22:04:20 79° 242° (WSW) 22:08:26 435.950
YUBILEINY 21 Dec 22:04:31 22:11:08 25° 83° (E) 22:17:44 435.215
ANTELSAT 21 Dec 22:06:51 22:11:31 57° 100° (E) 22:16:09 437.575/2403.000
UKube-1 21 Dec 22:15:30 22:16:14 10° 268° (W) 22:16:59 .
POPSAT HIP 1 21 Dec 22:27:46 22:31:59 60° 101° (E) 22:36:12 437.405
RS-15 21 Dec 22:31:22 22:40:25 29° 256° (WSW) 22:49:50 29.354- 29.394
PCSat 21 Dec 22:31:52 22:37:19 75° 63° (ENE) 22:42:42 145.827
TIGRISAT 21 Dec 22:41:33 22:46:12 60° 285° (WNW) 22:50:50 435.000
VELOX 1 21 Dec 22:44:15 22:46:56 16° 266° (W) 22:49:37 145.980
TISAT 1 21 Dec 22:46:29 22:50:27 42° 73° (ENE) 22:54:25 437.305
BUGSAT 1 21 Dec 22:47:42 22:51:47 84° 102° (ESE) 22:55:52 437.445
ESTCUBE 1 21 Dec 22:49:53 22:54:02 35° 262° (W) 22:58:13 437.505/2401.250
SPROUT 21 Dec 22:54:00 22:58:06 48° 74° (ENE) 23:02:13 437.525
DUCHIFAT 1 21 Dec 22:55:06 22:59:18 62° 285° (WNW) 23:03:31 145.980
50 SAT 21 Dec 22:57:04 22:58:21 11° 268° (W) 22:59:39 437.505
BEESAT 3 21 Dec 22:58:39 23:01:00 15° 251° (WSW) 23:03:19 437.485
O/OREOS (USA 219) 21 Dec 23:07:54 23:11:37 26° 103° (ESE) 23:15:20 437.305
QB50P2 21 Dec 23:09:50 23:13:51 40° 287° (WNW) 23:17:51 145.880/145.840
UNISAT 6 21 Dec 23:11:59 23:15:58 28° 290° (WNW) 23:19:58 437.425
AIST 2 21 Dec 23:12:04 23:15:41 27° 248° (WSW) 23:19:16 435.215
POLYITAN 1 21 Dec 23:19:20 23:23:08 31° 288° (WNW) 23:26:56 437.675
NANOSAT C BR1 21 Dec 23:20:23 23:24:08 31° 288° (WNW) 23:27:53 145.865
CUBEBUG 1 21 Dec 23:29:52 23:31:57 13° 267° (W) 23:34:02 437.445
M-CUBED/EXP-1 PRIME 21 Dec 23:34:05 23:36:33 14° 60° (ENE) 23:39:01 437.505
QB50P1 21 Dec 23:35:29 23:38:42 21° 290° (WNW) 23:41:55 145.935-145.965
ANTELSAT 21 Dec 23:45:37 23:47:46 13° 295° (WNW) 23:49:56 437.575/2403.000
YUBILEINY 21 Dec 23:58:38 00:07:13 60° 280° (W) 00:15:49 435.215
SWISSCUBE 22 Dec 00:09:21 00:14:03 57° 74° (ENE) 00:18:45 437.505
ITUPSAT 1 22 Dec 00:10:27 00:15:06 52° 74° (ENE) 00:19:46 437.325
Oscar 19 22 Dec 00:13:35 00:17:15 19° 94° (E) 00:20:53 437.125/150
PCSat 22 Dec 00:18:25 00:19:59 11° 258° (WSW) 00:21:33 145.827
TISAT 1 22 Dec 00:24:39 00:26:26 12° 267° (W) 00:28:13 437.305
SPROUT 22 Dec 00:33:05 00:34:25 11° 268° (W) 00:35:44 437.525
BEESAT 22 Dec 00:33:57 00:38:45 84° 257° (WSW) 00:43:34 436.000
AUBIESAT-1 22 Dec 00:39:31 00:44:14 60° 70° (ENE) 00:49:04 437.475
O/OREOS (USA 219) 22 Dec 00:47:24 00:50:56 23° 297° (WNW) 00:54:29 437.305
M-CUBED/EXP-1 PRIME 22 Dec 01:06:11 01:10:56 64° 255° (WSW) 01:15:50 437.505
STARS 22 Dec 01:08:51 01:12:32 27° 70° (ENE) 01:16:14 437.465
KKS-1 22 Dec 01:15:00 01:19:16 50° 74° (ENE) 01:23:33 437.445
VERMONT LUNAR 22 Dec 01:28:03 01:31:30 54° 151° (SSE) 01:34:58 437.305
PHONESAT 2.4 22 Dec 01:48:50 01:52:21 50° 151° (SSE) 01:55:52 2401.200-2431.200
SWISSCUBE 22 Dec 01:50:22 01:52:12 12° 268° (W) 01:54:02 437.505
ITUPSAT 1 22 Dec 01:50:59 01:53:14 13° 267° (W) 01:55:30 437.325
Oscar 19 22 Dec 01:51:49 01:56:42 42° 288° (WNW) 02:01:33 437.125/150
ITAMSAT 1 22 Dec 02:10:32 02:15:42 80° 285° (WNW) 02:20:52 435.822/435.867
Gurwin Techsat 1B 22 Dec 02:14:09 02:19:26 67° 102° (ESE) 02:24:42 435.225
AUBIESAT-1 22 Dec 02:17:18 02:19:28 13° 264° (W) 02:21:39 437.475
MOZHAYETS 4 22 Dec 02:38:06 02:39:27 11° 65° (ENE) 02:40:47
HORYU 2 22 Dec 02:41:19 02:45:41 46° 100° (E) 02:50:00 437.375
STARS 22 Dec 02:45:36 02:48:57 21° 264° (W) 02:52:19 437.465
KKS-1 22 Dec 02:54:35 02:56:09 12° 267° (W) 02:57:43 437.445
VERMONT LUNAR 22 Dec 03:06:33 03:09:54 39° 347° (NNW) 03:13:15 437.305
